Location: Julian California
(33.0790°N, 116.6010°W)
Time: 01:56:53
(UTC-07:00)

Nimbus 7 Rocket - Pass Details

Date: 19 May 2017
Orbit: 923 x 964 km, 99.5° (Epoch: 28 June)

Event Time Altitude Azimuth Distance (km) Brightness Sun altitude
Rises 21:37:04 0° 19° (NNE) 3,641 7.8 -20.8°
Reaches altitude 10° 21:39:34 10° 23° (NNE) 2,695 7.1 -21.2°
Maximum altitude 21:45:30 58° 102° (ESE) 1,115 4.5 -22.1°
Enters shadow 21:47:16 42° 155° (SSE) 1,333 4.7 -22.3°
